一网星座-0218星 (ONEWEB-0218 )

导读 | 豆包AI

ONEWEB-0218是英国OneWeb低轨宽带卫星星座的组成卫星,于2021年4月25日发射,属于该星座第6批组网卫星之一。卫星发射重量约147.5公斤,配备Ku和Ka波段天线,运行在高度约1200公里的近地轨道,设计寿命超7年。它依托氙等离子体推力器调整轨道,是OneWeb实现全球无缝互联网覆盖的重要节点,面向航空、海事、偏远区域提供宽带接入服务,支撑OneWeb低时延卫星通信网络构建。

基本信息
目录编号:
48214
目录名称:
ONEWEB-0218
国际标识:
2021-031E
轨道中心:
EARTH
卫星名称:
一网星座-0218星
卫星全名:
一网星座-0218星 (ONEWEB-0218 )
卫星状态:
在轨 (已飞行1784 天)
发射日期:
2021-04-25 UTC
国别 :
英国 (GB)
星等 :
--
轨道信息
数据来源 国际轨道数据 AOE轨道数据
星历时间 2026-03-14T05:04:14+0800
13小时前
查看轨道信息
2026-03-14T12:00:00+0800
6小时前
查看轨道信息
半长轴 7583.932km 7583.948km
偏心率 0.0002519 0.0001726
轨道倾角 87.898° 87.897°
近地点辐角 91.391° 77.326°
升交点赤经 308.713° 308.656°
平近点角 268.751° 208.310°
近地点 1203.884km 1204.502km
远地点 1207.706km 1207.12km
周期 109.547分钟 109.548分钟
每日圈数 13.145018 13.144976
详细信息
平衡模式:
三轴稳定
覆盖范围:
全球
运营商:
一网卫星公司
运营商所在国:
英国
制造商(研发单位):
一网卫星公司
制造商所在国:
英国
使用方式:
暂无
卫星简介
OneWeb卫星网络由648颗重约125公斤的微型卫星组成,运行在1200公里的轨道上。 每颗卫星都能够提供至少每秒8千兆位的吞吐量,以使用其高吞吐量的Ku频段有效载荷为家庭和移动平台提供互联网接入。该卫星仍在工作。
2D轨道图
3D轨道图
轨道高度分析图
轨道倾角分析图
轨道综合分析图
查看轨道综合分析图